Miami, FL

9:36 AM EDT on June 22, 2017 (GMT -0400)
Miami International

Weather History for KMIA - September, 2013

Change the Weather History Date:

Tuesday, September 24, 2013

  Actual Average Record
Temperature  
Mean Temperature 86 °F 82 °F  
Max Temperature 92 °F 89 °F 92 °F (2011)
Min Temperature 79 °F 76 °F 70 °F (1943)
Degree Days  
Heating Degree Days 0 0  
Month to date heating degree days 0 0  
Since 1 July heating degree days 0 0  
Cooling Degree Days 21 18  
Month to date cooling degree days 434 434  
Year to date cooling degree days 3571 3509  
Growing Degree Days 35 (Base 50)    
Moisture  
Dew Point 75 °F    
Average Humidity 75    
Maximum Humidity 94    
Minimum Humidity 56    
Precipitation  
Precipitation 0.01 in 0.34 in 2.83 in (1918)
Month to date precipitation 9.26 7.94  
Year to date precipitation 51.94 48.34  
Snow  
Snow 0.00 in - - ()
Month to date snowfall 0.0  
Since 1 July snowfall 0.0  
Since 1 September snowfall 0.0  
Snow Depth 0.00 in    
Sea Level Pressure  
Sea Level Pressure 29.95 in    
Wind  
Wind Speed 5 mph (SW)    
Max Wind Speed 21 mph    
Max Gust Speed 25 mph    
Visibility 10 miles    
Events Rain    
T = Trace of Precipitation, MM = Missing Value Source: NWS Daily Summary

Daily Weather History Graph

Daily Weather History Graph

Search for Another Location

Airport or City:

Trip Planner

Search our weather history database for the weather conditions in past years. The results will help you decide how hot, cold, wet, or windy it might be!

Date:

Astronomy

Sep. 24, 2013 Rise Set
Actual Time 7:10 AM EDT 7:15 PM EDT
Civil Twilight 6:47 AM EDT 7:38 PM EDT
Nautical Twilight 6:20 AM EDT 8:04 PM EDT
Astronomical Twilight 5:54 AM EDT 8:31 PM EDT
Moon 11:01 PM EDT (9/24) 11:54 AM EDT (9/24)
Length of Visible Light 12h 50m
Length of Day
12h 04m
Waning Gibbous, 73% of the Moon is Illuminated
Sep 24
Waning Gibbous
Sep 26
Last Quarter
Oct 4
New
Oct 11
First Quarter
Oct 18
Full

Hourly Weather History & Observations

Time (EDT) Temp. Heat Index Dew Point Humidity Pressure Visibility Wind Dir Wind Speed Gust Speed Precip Events Conditions
12:53 AM 82.0 °F 88.6 °F 75.0 °F 79% 29.98 in 10.0 mi South 4.6 mph - N/A   Mostly Cloudy
1:53 AM 81.0 °F 86.2 °F 73.9 °F 79% 29.97 in 10.0 mi Calm Calm - N/A   Overcast
2:53 AM 80.1 °F 85.1 °F 75.0 °F 85% 29.97 in 10.0 mi Calm Calm - N/A   Mostly Cloudy
3:53 AM 80.1 °F 85.1 °F 75.0 °F 85% 29.96 in 10.0 mi Calm Calm - N/A   Mostly Cloudy
4:53 AM 80.1 °F 85.4 °F 75.9 °F 87% 29.94 in 10.0 mi Calm Calm - N/A   Overcast
5:53 AM 81.0 °F 87.9 °F 77.0 °F 88% 29.95 in 10.0 mi Calm Calm - N/A   Overcast
6:53 AM 81.0 °F 88.6 °F 78.1 °F 91% 29.96 in 10.0 mi Calm Calm - N/A   Overcast
7:53 AM 82.0 °F 91.0 °F 78.1 °F 88% 29.96 in 10.0 mi South 4.6 mph - N/A   Mostly Cloudy
8:53 AM 84.0 °F 94.8 °F 78.1 °F 82% 29.98 in 10.0 mi South 8.1 mph - N/A   Mostly Cloudy
9:53 AM 86.0 °F 96.9 °F 77.0 °F 74% 29.99 in 10.0 mi South 8.1 mph - N/A   Mostly Cloudy
10:53 AM 88.0 °F 98.5 °F 75.9 °F 67% 29.99 in 10.0 mi SSW 5.8 mph - N/A   Mostly Cloudy
11:53 AM 88.0 °F 100.2 °F 77.0 °F 70% 29.97 in 10.0 mi South 6.9 mph - N/A   Mostly Cloudy
12:53 PM 88.0 °F 100.2 °F 77.0 °F 70% 29.95 in 10.0 mi South 9.2 mph - N/A   Mostly Cloudy
1:53 PM 90.0 °F 102.5 °F 77.0 °F 65% 29.93 in 10.0 mi SSE 13.8 mph - N/A   Mostly Cloudy
2:53 PM 88.0 °F 100.2 °F 77.0 °F 70% 29.91 in 10.0 mi SSE 12.7 mph - N/A   Mostly Cloudy
3:53 PM 91.0 °F 100.4 °F 73.9 °F 57% 29.90 in 10.0 mi SW 13.8 mph 20.7 mph N/A   Mostly Cloudy
4:53 PM 86.0 °F 93.0 °F 73.0 °F 65% 29.92 in 10.0 mi West 16.1 mph 24.2 mph 0.00 in Rain Light Rain
5:53 PM 82.9 °F 90.8 °F 75.9 °F 79% 29.92 in 10.0 mi WSW 8.1 mph - 0.00 in   Mostly Cloudy
6:53 PM 84.0 °F 91.9 °F 75.0 °F 74% 29.92 in 10.0 mi West 4.6 mph - N/A   Overcast
7:53 PM 80.1 °F 84.2 °F 73.0 °F 79% 29.92 in 10.0 mi NW 3.5 mph - 0.01 in   Overcast
8:53 PM 80.1 °F 83.8 °F 72.0 °F 76% 29.93 in 10.0 mi Calm Calm - N/A   Overcast
9:53 PM 81.0 °F 85.2 °F 72.0 °F 74% 29.94 in 10.0 mi West 4.6 mph - N/A   Overcast
10:53 PM 80.1 °F 83.8 °F 72.0 °F 76% 29.94 in 10.0 mi Calm Calm - 0.00 in Rain Light Rain
11:53 PM 79.0 °F - 73.9 °F 84% 29.92 in 10.0 mi NNW 3.5 mph - 0.00 in Rain Light Rain